Regional Weather Roundup
Issued by NWS Mt. Holly, NJ

Home | Current Version | Previous Version | Text Only | Print | Product List | Glossary On
Versions: 1 2 3 4 5 6 7 8 9 10 11 12 13 14 15 16 17 18 19 20 21 22 23 24 25 26 27 28
000
ASUS41 KPHI 220712
RWRPHI

REGIONAL WEATHER ROUNDUP
NATIONAL WEATHER SERVICE MOUNT HOLLY NJ
300 AM EDT SUN OCT 22 2017

NOTE:  "FAIR" INDICATES FEW OR NO CLOUDS BELOW 12,000 FEET WITH NO
SIGNIFICANT WEATHER AND/OR OBSTRUCTIONS TO VISIBILITY.

 * = STATION DOES NOT REPORT PRECIPITATION (E.G. RAIN, SNOW, ETC.)
        OR FOG.

NJZ015>026-220800-
SOUTHERN NEW JERSEY

CITY           SKY/WX    TMP DP  RH WIND       PRES   REMARKS
POMONA         FOG       46  46 100 CALM      30.35F VSB 1/4
WILDWOOD*      LGT RAIN  51  51 100 CALM      30.36S VSB 1/4
MILLVILLE      FOG       47  47 100 CALM      30.35F VSB 1/4
WRIGHTSTOWN    CLEAR     47  45  94 CALM      30.33F
MOUNT HOLLY    CLEAR     45  45 100 CALM      30.35F
TRENTON        CLEAR     49  46  90 CALM      30.35S

$$
NJZ001>014-220800-
NORTHERN NEW JERSEY

CITY           SKY/WX    TMP DP  RH WIND       PRES   REMARKS
SUSSEX         CLOUDY    41  41 100 CALM      30.37R
ANDOVER*         N/A     43  42  97 CALM      30.37R
MORRISTOWN       N/A     39  37  93 CALM      30.37R FOG
NEWARK         PTCLDY    57  46  66 SW5       30.35F
TETERBORO      CLEAR     53  47  79 CALM      30.34F
CALDWELL       CLEAR     46  46 100 CALM      30.36F
SOMERVILLE     CLEAR     42  42 100 NW3       30.35S
ALLAIRE*       CLEAR     53  50  89 W5        30.36F
TOMS RIVER*      N/A     43  41  93 CALM      30.37S

$$
PAZ043-044-047-054-055-060>062-066>071-220800-
EASTERN PENNSYLVANIA

CITY           SKY/WX    TMP DP  RH WIND       PRES   REMARKS
PHILADELPHIA   PTCLDY    54  48  80 CALM      30.36S
NORTH PHILA    CLEAR     50  46  86 CALM      30.37S
BLUE BELL*     CLEAR     41  41 100 CALM      30.37S
DOYLESTOWN     CLEAR     47  44  90 CALM      30.35S
QUAKERTOWN*    CLEAR     43  41  93 CALM      30.37R
PERKASIE*      FAIR      45  45 100 CALM      30.37R
POTTSTOWN      CLEAR     45  44  97 CALM      30.38R
LANCASTER      CLEAR     49  47  93 CALM      30.35S
COATESVILLE    CLEAR     50  46  87 CALM      30.37S
READING        CLEAR     47  47 100 CALM      30.35S
ALLENTOWN      CLEAR     45  41  86 CALM      30.37R
MOUNT POCONO   CLOUDY    41  39  93 CALM      30.38R
HAZLETON       CLOUDY    39  32  75 CALM      30.40S
LEHIGHTON      FAIR      37  37 100 CALM      30.38S
WILKES BARRE   CLOUDY    50  42  74 E6        30.36R

$$
DEZALL-MDZ008-012-015-019-020-220800-
DELAWARE AND EASTERN MARYLAND

CITY           SKY/WX    TMP DP  RH WIND       PRES   REMARKS
WILMINGTON     CLEAR     49  47  93 NW3       30.36S
DOVER          CLEAR     52  52 100 CALM      30.35S FOG
GEORGETOWN     CLEAR     50  48  93 CALM      30.36S
EASTON         CLEAR     52  49  90 CALM      30.38F
PATUXENT       CLEAR     51  50  96 W3        30.34S
OCEAN CITY     PTCLDY    50  50 100 CALM      30.35F
WALLOPS ISLAND PTCLDY    55  55 100 CALM      30.35F
CAMBRIDGE      CLEAR     48  48 100 CALM      30.35S
SALISBURY      CLOUDY    49  48  97 CALM      30.34F

$$
PAZ001-021-NYZ056-072-MDZ011-DCZ001-220800-
OTHER NEARBY LOCATIONS

CITY           SKY/WX    TMP DP  RH WIND       PRES   REMARKS
HARRISBURG     CLOUDY    48  47  96 E5        30.34S
STATE COLLEGE  PTCLDY    49  44  83 CALM      30.33S
WILLIAMSPORT   CLEAR     46  44  93 CALM      30.33F
BINGHAMTON     CLOUDY    55  39  54 S6        30.34S
NEW YORK CITY  CLEAR     62  44  51 NW3       30.37F
BALTIMORE      MOCLDY    47  47 100 CALM      30.34F
WASHINGTON DC  MOCLDY    58  51  78 CALM      30.36R

$$




USA.gov is the U.S. government's official web portal to all federal, state and local government web resources and services.